RH
5 10 15 18 24 28 31 34 49 59 70 88 86 85 88 82 66 52 48 31 34 66 100 100 92 72 55 44 36 40 24 24 30 28 22 24 23 16 13 9 8 10 10 10 13 20 23
9 19 22 26 31 44 41 40 47 59 62 76 82 91 88 94 72 56 46 32 25 28 73 98 100 95 64 46 37 50 51 25 25 32 24 26 25 19 13 12 8 9 10 12 14 20 20
14 22 17 27 35 43 46 48 53 56 64 76 79 88 86 91 93 54 40 35 22 22 30 97 99 100 85 46 43 52 53 46 29 32 32 28 29 24 17 15 15 16 10 18 14 19 17
16 21 23 30 31 47 58 55 59 62 67 75 82 90 80 85 92 61 33 39 36 30 20 38 98 99 98 52 52 46 53 53 54 35 46 36 36 27 18 18 22 24 19 17 12 12 14
16 87 50 35 28 42 60 62 58 66 72 76 77 82 84 87 87 65 30 24 26 23 21 19 85 100 99 61 56 45 53 52 56 51 54 49 45 37 22 21 30 26 23 18 21 11 9
10 80 58 47 34 30 48 69 70 67 71 85 81 80 81 83 91 65 44 31 13 12 15 26 51 98 98 73 52 49 65 55 53 57 66 58 47 42 29 31 35 26 24 18 17 13 10
8 12 24 61 57 40 48 59 74 78 72 79 84 84 83 81 81 47 28 17 16 13 22 51 71 93 97 96 73 52 64 62 54 54 70 64 47 44 39 23 18 21 18 18 12 14 12
7 9 12 14 34 44 44 48 66 72 81 76 83 77 72 64 54 48 41 49 40 24 14 25 48 93 99 100 97 69 51 65 57 51 74 70 58 42 43 28 24 24 22 16 20 21 23
8 12 30 38 20 15 28 44 55 63 74 78 77 77 68 51 48 57 50 55 41 26 31 23 31 51 96 99 100 70 57 57 60 51 61 68 60 53 46 38 29 25 33 30 22 24 36
6 47 85 58 78 40 18 18 27 57 64 68 78 72 59 51 53 44 39 47 32 35 73 81 38 50 96 100 100 81 56 50 74 55 50 70 65 53 47 44 33 24 30 36 39 30 35
5 25 83 78 72 70 17 18 19 19 31 59 65 76 64 47 43 40 42 40 37 68 97 100 89 61 92 98 94 84 66 64 60 59 56 57 67 54 47 41 41 32 22 34 42 33 34
2 8 63 76 82 73 67 70 41 22 20 35 64 66 63 58 48 42 40 36 43 94 94 94 97 99 96 98 94 78 73 84 70 66 54 49 56 59 47 42 42 39 33 43 44 43 57
1 2 12 21 46 77 72 74 68 50 18 33 64 62 60 51 50 45 52 59 66 100 59 90 73 90 96 95 99 87 80 96 76 75 68 65 60 60 55 51 46 45 43 62 72 77 73
1 1 2 11 22 44 62 62 75 47 29 36 56 59 60 66 68 68 71 85 91 88 72 74 68 49 94 97 96 100 78 90 75 70 78 76 70 61 59 54 48 50 44 53 76 87 62
1 1 2 2 14 25 46 42 59 56 35 32 44 49 68 72 74 78 85 95 93 91 96 95 66 69 90 98 98 99 99 75 74 70 61 73 66 64 59 55 50 53 49 41 38 44 49
2 1 1 2 3 18 26 36 53 52 46 37 40 41 79 71 66 75 94 92 94 97 99 93 89 80 90 94 96 98 98 85 71 67 64 64 61 62 60 59 54 50 47 51 47 60 62
13 2 2 2 2 4 22 32 28 48 45 32 46 50 76 62 69 83 93 87 79 70 90 93 96 98 97 93 89 95 98 79 65 66 65 56 54 63 58 60 58 58 56 52 47 44 57
15 5 2 2 2 2 5 22 25 22 42 34 42 56 50 76 45 49 58 82 77 84 82 86 77 77 90 96 96 97 98 77 64 58 63 56 55 57 58 59 59 56 52 52 50 50 41
14 8 2 2 2 2 2 14 24 22 22 52 45 50 40 65 38 33 50 80 92 97 95 90 96 95 94 87 95 93 97 81 82 58 64 54 59 74 73 60 57 58 54 49 48 46 42
16 6 2 2 2 3 2 3 21 24 21 28 58 52 50 43 51 61 60 86 90 80 91 90 88 96 96 95 94 86 90 98 96 91 59 57 55 58 69 56 53 61 57 52 51 43 45
20 10 4 2 2 2 2 2 5 25 22 21 61 75 63 53 36 52 79 85 81 89 76 68 59 67 85 93 90 84 96 97 96 91 95 63 59 52 50 50 48 46 48 51 51 48 41
20 17 11 5 2 2 2 2 3 15 26 24 42 73 73 68 55 45 65 79 80 82 93 77 87 76 70 75 83 80 93 96 97 99 98 98 93 60 54 52 48 49 41 38 44 42 43
21 19 14 8 2 2 2 2 2 6 23 22 29 58 83 59 58 49 53 75 87 98 78 95 100 84 74 54 58 62 78 89 88 98 99 99 96 85 68 50 49 58 43 39 36 35 35
22 21 18 10 2 2 2 2 2 3 20 27 29 45 89 67 64 65 75 91 93 96 96 87 93 92 88 81 76 63 68 79 85 90 98 89 100 89 67 54 73 47 40 35 30 28 31
24 21 20 13 3 2 2 2 2 3 13 28 30 45 88 68 72 78 83 86 84 77 90 96 92 85 82 88 64 89 82 83 77 99 99 84 89 98 94 76 54 46 39 33 34 30 26
27 23 20 15 3 3 2 2 2 2 10 29 29 40 57 68 80 88 83 92 88 81 76 86 99 97 100 78 91 99 95 96 99 96 96 100 100 97 98 97 91 54 43 38 32 38 24
28 24 21 16 4 4 3 2 2 2 6 25 25 30 46 46 73 90 93 93 92 92 92 93 93 94 95 97 98 97 84 70 96 99 98 99 99 98 97 96 67 55 48 42 54 39 32
29 26 22 19 5 6 4 2 2 2 4 22 25 31 47 49 54 87 87 98 94 93 96 95 85 92 95 96 95 96 97 92 93 98 98 94 98 98 98 98 88 62 55 53 42 37 34
32 28 24 20 10 6 6 2 2 2 4 18 24 26 46 52 61 63 89 99 100 99 96 94 96 95 96 95 95 95 96 98 98 85 87 98 94 81 75 80 69 67 62 55 47 42 41
Wind_Speed
36 32 31 29 28 28 28 26 24 22 20 18 18 19 20 20 16 16 20 23 24 39 42 31 36 38 39 43 42 19 35 36 33 36 35 34 35 34 33 33 30 32 26 27 28 18 15
33 30 30 30 29 28 28 26 24 21 19 16 15 16 18 20 17 15 18 22 20 19 44 36 25 36 42 47 36 32 19 34 35 35 36 36 34 30 30 29 33 26 25 25 28 24 21
32 28 31 31 29 28 28 25 23 19 17 14 12 13 15 17 16 14 17 19 21 19 29 44 26 32 46 46 36 38 22 26 36 32 33 34 29 31 27 31 24 22 26 23 30 26 22
30 30 31 30 29 27 27 24 22 19 16 15 15 13 17 17 15 14 16 17 16 19 20 33 39 27 44 46 39 35 40 21 28 35 32 30 32 31 31 28 20 26 17 30 33 29 31
29 30 30 28 29 26 26 25 21 20 17 15 15 16 15 16 17 14 16 17 16 18 22 24 37 30 31 48 44 37 37 37 21 34 35 35 35 32 31 29 20 28 27 32 22 28 25
27 28 29 29 27 26 25 25 23 20 18 17 16 16 16 17 15 14 15 15 16 17 23 25 32 31 18 36 43 39 32 32 32 31 36 39 41 36 40 36 31 31 28 28 29 27 28
27 27 27 28 29 26 25 25 24 22 20 18 18 17 16 17 13 14 12 12 13 16 17 22 25 36 5 21 39 41 39 28 36 28 41 42 45 50 44 41 35 28 30 22 24 23 25
29 27 28 28 26 27 25 25 25 23 21 20 17 17 16 14 12 13 14 11 12 14 19 24 27 37 14 30 28 40 39 40 37 40 38 39 48 45 38 39 34 27 17 26 22 24 21
31 29 29 29 29 27 26 25 24 24 22 20 18 16 14 13 11 11 12 11 13 13 21 23 28 39 22 22 35 41 44 46 40 43 40 46 42 39 39 38 36 29 25 19 22 25 23
32 29 32 29 31 30 26 25 23 23 23 20 17 15 14 11 11 11 13 11 12 15 12 7 18 32 36 30 30 36 44 45 41 39 40 35 37 38 41 41 37 39 29 18 18 24 24
32 29 30 31 31 33 28 26 25 25 23 20 17 14 11 12 11 11 11 12 12 11 5 3 6 22 37 29 24 34 39 42 43 43 42 40 35 28 46 46 35 33 34 22 14 28 24
34 29 26 27 29 30 30 30 28 26 23 19 16 13 9 9 9 11 11 12 14 5 4 14 10 12 29 25 26 27 37 40 29 34 35 34 21 32 37 40 35 22 27 16 18 26 9
35 34 28 27 26 28 29 31 30 26 20 17 14 12 8 8 7 9 9 12 6 1 15 18 26 13 12 21 24 31 39 44 30 34 37 33 31 38 27 33 36 32 32 7 3 4 5
36 37 33 29 25 25 28 30 31 24 17 16 14 11 7 6 9 9 9 9 2 8 11 18 22 27 13 11 34 32 41 50 35 32 32 29 19 40 34 43 40 42 40 14 8 5 4
38 39 38 34 26 25 26 29 28 23 17 16 13 10 4 9 11 10 10 6 4 11 13 18 15 15 11 2 18 29 32 51 49 35 29 32 18 34 31 41 39 42 44 30 8 12 8
40 39 40 39 32 25 24 26 27 23 19 15 14 8 8 9 13 10 6 7 7 16 22 16 9 10 18 21 6 28 30 46 53 37 40 23 18 33 31 39 40 43 45 29 19 8 5
44 40 41 43 39 30 23 21 26 24 20 15 13 6 9 11 11 10 11 12 19 17 13 10 11 14 9 18 18 15 19 24 50 44 37 21 29 26 35 36 45 35 43 38 33 17 9
48 43 41 44 43 37 27 20 21 25 21 14 12 9 13 11 13 13 14 16 16 17 9 14 14 11 12 14 10 11 18 25 46 49 42 31 24 33 44 29 38 44 44 44 25 22 20
48 43 42 44 45 40 32 20 19 20 24 18 14 7 11 9 17 18 16 12 13 18 12 8 8 8 11 17 11 11 7 38 24 53 43 39 12 16 16 30 35 41 46 50 46 32 26
50 45 43 45 47 44 36 25 16 20 18 18 15 10 13 12 18 17 21 16 16 16 9 16 15 7 7 12 14 11 15 15 29 41 52 36 20 29 21 44 35 37 45 40 43 23 29
49 46 43 45 49 47 41 30 19 15 18 16 14 12 15 19 18 14 16 17 24 24 22 23 18 15 15 13 13 18 15 10 34 33 41 50 30 25 30 30 41 43 45 46 41 51 29
49 48 44 44 48 50 43 33 26 16 15 13 14 15 18 21 15 17 16 20 22 24 28 24 22 23 22 25 24 27 17 13 8 30 35 37 40 35 24 26 29 41 42 45 49 47 53
49 50 46 43 44 50 45 37 28 19 14 14 14 13 15 19 21 20 18 18 23 25 22 28 26 27 27 20 22 28 25 20 17 12 32 24 40 41 29 23 31 29 35 37 47 53 49
47 50 48 44 43 51 47 37 30 21 15 17 17 18 16 24 22 13 18 21 20 22 27 27 17 19 19 13 16 20 21 21 20 24 29 43 30 33 15 35 6 26 38 36 36 36 43
46 49 49 46 42 50 49 39 31 22 13 15 16 17 15 22 13 17 17 19 18 20 26 30 20 21 16 15 11 6 8 16 21 21 29 40 41 20 14 14 16 27 31 42 44 45 39
45 48 49 45 42 49 50 41 33 22 13 14 16 17 19 20 17 19 23 19 24 30 33 35 15 8 10 15 16 6 7 7 6 13 33 34 37 42 18 7 11 41 36 31 37 46 39
44 46 48 45 41 49 50 43 34 24 14 13 15 18 19 18 16 21 16 20 23 27 31 33 19 12 7 4 11 4 12 12 7 22 28 32 35 30 17 13 20 24 30 37 31 37 44
43 45 47 45 39 47 50 45 36 26 16 13 16 18 17 19 15 14 16 18 21 23 26 28 24 29 13 2 6 9 4 10 8 11 27 26 19 17 21 8 9 20 34 30 37 45 37
41 43 45 44 38 42 48 45 39 28 20 16 16 17 16 18 14 18 15 12 16 21 22 22 22 24 14 12 11 8 9 7 12 12 14 19 18 19 19 16 20 18 21 35 36 36 33
Wind_Direction
352 349 349 344 343 342 340 337 334 328 320 311 298 289 282 284 279 272 261 265 255 234 224 231 239 230 228 228 217 214 220 215 214 211 212 213 209 207 210 213 212 217 215 209 210 209 204
352 349 352 350 346 345 344 339 336 334 328 325 314 306 300 292 293 277 265 261 270 259 238 201 202 230 233 230 214 217 215 210 215 214 208 210 214 211 214 214 217 221 215 213 214 212 215
349 348 349 352 349 347 346 342 339 334 332 331 324 314 313 306 284 278 262 266 268 258 253 233 189 208 229 227 222 209 201 196 201 214 211 210 209 213 207 207 209 212 213 220 216 213 215
348 347 350 352 350 349 347 344 344 340 332 332 325 319 320 315 297 282 265 269 278 276 248 258 220 199 227 222 222 216 208 195 191 196 207 204 205 203 205 198 201 199 202 214 222 217 220
351 358 355 353 352 350 348 347 342 342 337 326 324 324 326 310 301 289 276 281 281 281 279 261 234 206 223 224 219 214 214 209 198 192 196 201 201 203 199 195 189 195 205 212 225 224 223
348 355 354 353 352 352 349 347 348 342 340 337 332 329 326 323 303 298 290 290 291 282 291 268 243 230 226 223 218 212 215 207 206 199 191 200 198 200 198 194 191 195 201 211 218 217 216
347 343 349 351 354 352 350 346 346 346 341 336 336 332 325 325 316 308 310 297 295 301 289 275 249 219 170 202 215 211 213 201 204 204 196 199 199 203 202 204 206 212 211 211 219 225 228
351 345 341 343 345 348 348 348 346 342 343 342 335 332 337 337 330 324 322 323 322 315 292 269 269 231 163 163 192 206 208 204 201 201 199 202 209 209 203 206 205 203 213 212 215 216 220
351 349 348 346 341 342 344 346 345 344 342 339 336 337 336 335 336 332 330 339 329 321 311 269 252 239 172 199 195 198 201 203 209 201 201 207 214 204 206 205 205 199 202 207 217 211 211
353 359 359 355 347 344 343 343 340 341 342 338 331 334 336 340 330 331 340 339 328 308 304 325 228 225 213 179 194 201 207 204 203 208 205 210 210 208 203 208 206 207 202 207 231 208 195
356 355 4 360 350 352 350 343 340 336 336 338 330 328 340 340 343 334 344 334 332 321 332 78 164 221 218 180 193 195 198 197 209 201 197 204 201 195 210 208 201 215 207 216 230 219 212
2 354 352 0 355 355 355 350 343 337 336 335 331 326 337 332 333 335 338 334 329 331 283 341 12 175 227 204 168 197 185 191 201 206 210 211 206 208 212 211 200 199 203 210 200 199 216
6 358 345 342 348 355 355 354 348 347 346 345 338 339 343 346 338 333 329 326 336 308 350 341 344 348 292 218 177 182 185 188 179 181 192 198 199 200 200 194 195 194 193 153 184 198 211
11 6 356 345 342 341 352 353 355 357 1 356 347 352 4 28 10 346 336 345 338 349 2 340 333 323 310 198 209 173 184 191 189 189 176 174 185 196 197 192 191 195 192 180 174 160 184
12 11 4 354 345 340 344 353 358 5 8 5 358 353 33 20 9 359 359 18 346 329 340 346 353 339 19 263 207 183 193 195 190 184 178 185 186 189 198 200 195 192 202 206 188 211 185
11 11 10 3 354 344 346 354 1 8 9 12 9 4 40 16 352 359 7 357 323 315 323 332 354 349 337 328 53 196 189 202 197 189 196 191 178 185 187 193 203 207 204 202 213 160 201
11 11 10 8 4 354 345 353 0 5 11 15 11 31 29 360 8 38 23 341 338 349 322 332 314 315 328 329 334 324 197 205 200 190 191 198 193 186 187 195 196 195 200 207 213 217 203
10 11 10 10 7 360 353 351 353 3 11 16 26 42 19 41 16 17 2 348 347 348 350 311 316 308 316 332 314 316 223 198 201 193 194 189 193 186 197 200 203 208 204 204 205 207 222
11 12 11 9 9 4 0 355 359 357 6 18 21 22 11 39 9 9 7 20 10 3 6 325 326 313 310 311 311 327 321 195 198 200 198 189 197 153 185 209 205 208 209 212 211 218 217
13 12 11 10 9 5 3 2 359 5 3 9 13 16 15 17 3 360 354 14 3 1 1 341 339 338 310 311 282 277 296 201 212 212 204 207 205 197 195 206 202 206 209 211 209 215 215
13 13 11 9 9 8 3 2 3 1 7 12 15 7 4 344 352 3 356 355 349 351 343 345 326 311 311 302 270 266 288 304 206 206 208 217 224 213 222 218 210 213 213 209 211 220 216
13 12 12 10 7 9 5 2 358 6 8 6 14 8 352 358 353 348 358 342 347 346 339 337 324 309 294 281 276 276 283 289 283 207 208 214 223 220 227 216 220 217 219 220 220 224 225
12 11 11 11 8 8 8 2 359 356 3 3 10 2 351 356 351 343 340 337 340 337 334 325 313 300 288 282 265 258 264 267 276 230 213 218 210 217 236 226 215 211 214 218 228 229 229
10 9 9 9 8 7 8 5 360 354 354 357 0 1 349 344 350 347 344 340 339 340 336 343 311 293 295 243 236 247 257 261 270 226 210 208 206 206 225 221 206 224 223 225 234 239 238
8 8 8 8 7 6 5 6 2 359 355 354 355 357 356 338 353 351 355 338 346 351 1 356 331 284 263 226 206 266 240 269 256 233 212 210 210 207 206 215 226 231 219 217 220 232 236
6 6 7 6 6 4 4 5 4 3 2 355 354 352 354 354 351 352 345 352 351 356 4 4 14 313 237 211 198 218 193 213 205 207 206 214 212 212 198 188 207 229 224 226 230 234 230
4 6 6 4 5 4 3 5 6 6 6 357 356 352 353 359 359 353 356 352 354 354 355 5 9 23 143 173 232 276 241 239 247 177 185 190 201 207 199 206 235 229 219 224 212 241 235
2 3 5 4 2 4 2 3 6 7 6 2 357 355 355 359 359 6 352 345 345 351 352 1 12 8 20 351 248 234 253 199 261 194 187 190 191 206 213 204 243 235 217 215 221 230 237
359 1 2 4 1 2 1 2 4 7 5 0 357 354 359 358 350 357 353 344 352 347 343 359 3 5 356 345 324 321 263 224 212 198 201 207 203 203 207 219 229 241 226 225 230 236 243